Lid_Strength_Index
13 12 11 11 11 10 12 12 15 13 13 11 10 9 8 7 7 7 7 6 6 5 5 4 4 3 3 3 2 2 2 2 2 2 2 2 2 1 1 1 1 1 1 1
14 11 11 12 10 10 10 11 12 12 13 9 8 8 8 8 7 7 7 6 5 5 4 4 4 4 3 3 2 2 2 2 2 2 2 2 2 1 1 1 1 2 1 1
16 13 12 14 11 10 11 11 12 14 11 9 9 9 8 8 7 7 6 6 5 5 4 4 4 3 3 3 2 2 3 2 2 3 3 3 2 2 2 2 2 2 2 2
17 14 18 12 9 9 11 10 10 10 10 9 8 8 7 6 7 6 6 5 5 4 4 3 3 3 2 2 3 2 3 2 2 2 2 2 2 2 2 2 2 2 2 2
17 16 13 12 10 11 12 12 9 10 9 8 7 7 7 5 5 5 5 4 4 3 3 4 4 2 3 3 3 3 4 3 2 2 2 3 3 2 2 2 2 2 1 1
16 18 19 13 9 8 8 15 8 8 9 9 8 12 9 6 5 5 4 4 4 3 3 4 4 4 4 4 5 5 3 3 3 2 3 2 2 2 1 1 2 1 2 1
16 17 14 10 8 7 15 14 7 8 8 8 9 8 6 5 5 4 4 4 3 3 4 4 4 4 4 5 6 5 4 3 3 3 2 3 2 1 1 2 2 2 2 1
15 17 17 8 9 12 9 7 7 7 7 7 6 6 5 5 5 4 4 3 3 3 3 3 4 4 4 5 4 3 4 4 3 2 2 3 3 3 2 2 2 2 2 3
13 13 8 7 8 6 6 7 7 7 6 6 6 6 5 5 5 5 4 4 3 3 3 3 3 4 4 4 4 3 3 4 4 3 4 3 2 3 3 2 2 3 3 3
11 10 8 7 6 6 6 6 6 5 5 5 6 5 5 5 5 4 4 4 3 3 3 3 3 4 4 3 3 3 4 4 4 3 4 4 3 2 2 2 3 3 3 3
11 9 7 6 6 6 5 5 5 4 5 5 5 5 5 5 5 4 4 3 3 3 3 3 3 3 3 3 4 4 4 4 4 4 3 3 4 4 2 2 3 2 2 2
12 8 9 7 5 5 6 6 5 5 5 4 4 5 4 5 4 4 4 3 3 3 3 3 3 3 3 3 4 4 4 4 4 4 4 3 3 4 6 8 10 10 10 5
8 7 7 6 5 5 5 5 4 5 4 5 4 4 4 4 4 4 3 3 3 3 3 3 3 2 3 3 4 3 3 4 4 4 4 4 4 3 4 5 10 11 11 10
6 6 6 6 6 5 4 4 4 4 4 4 4 3 3 4 3 4 3 3 3 2 2 3 2 2 2 3 3 3 3 6 4 4 3 3 3 3 4 3 3 2 8 10
6 5 6 5 5 5 4 4 5 5 4 4 4 4 4 4 4 4 3 2 2 3 3 3 3 2 2 2 2 3 3 4 4 3 3 3 2 2 3 4 4 4 2 6
5 5 5 6 6 5 5 5 5 5 5 4 4 4 3 3 3 3 2 2 3 3 3 3 3 2 1 2 2 2 2 3 3 3 3 2 2 2 2 2 2 2 2 2
7 7 6 6 6 5 5 5 4 5 4 4 4 3 3 3 4 3 3 2 3 3 2 2 2 1 2 2 2 3 3 2 3 4 4 3 2 2 2 2 2 2 2 3
5 5 5 5 5 5 5 4 4 4 4 3 3 3 3 4 4 4 3 2 3 3 3 3 3 2 2 2 3 3 2 2 3 4 4 4 4 3 2 2 2 2 2 2
4 4 4 4 4 4 4 4 4 3 3 3 3 4 3 3 3 3 2 3 3 3 2 2 3 1 2 2 1 2 2 3 4 4 5 5 4 4 3 2 2 2 2 2
4 4 4 4 3 4 4 3 3 3 3 3 3 3 4 3 3 3 3 3 3 3 3 2 2 2 2 3 2 2 3 4 4 5 5 5 5 4 4 6 4 2 2 2
4 4 4 4 4 3 3 3 3 4 3 3 4 3 3 3 3 3 4 4 3 2 3 3 3 3 3 3 3 3 4 4 4 4 4 4 4 4 4 4 3 2 2 2
4 4 4 4 4 4 3 3 3 3 3 3 4 3 3 3 3 3 3 3 3 5 3 3 3 3 3 3 3 4 4 4 4 4 4 4 4 4 3 3 3 2 2 2
6 5 4 4 4 4 3 3 3 3 3 3 3 3 3 3 3 4 4 3 3 4 2 3 4 4 4 3 3 3 3 3 2 2 2 2 2 3 3 3 3 3 2 1
5 5 5 3 4 4 4 4 3 3 4 3 3 2 2 3 3 3 2 4 5 4 3 4 4 4 4 2 1 1 1 1 1 1 1 4 1 1 1 2 2 2 2 2
5 4 4 4 4 4 4 4 4 4 4 4 4 4 3 3 3 4 3 3 5 4 3 4 4 3 2 2 2 1 1 1 1 2 2 2 2 1 1 1 1 2 2 3
4 4 3 3 3 3 3 3 4 4 4 4 4 4 5 4 3 3 4 5 4 5 5 5 5 5 5 5 5 5 4 4 4 3 3 2 1 1 1 1 1 1 1 2
3 5 3 4 4 3 3 3 3 4 4 5 6 5 6 6 6 5 6 6 6 6 6 6 7 7 7 7 6 6 5 5 7 5 3 3 1 1 1 1 1 1 1 1